Wautoma, WI

10:07 PM CST on November 22, 2017 (GMT -0600)
Wautoma

Weather History for KY50 - June, 2013

Change the Weather History Date:

Friday, June 14, 2013

  Actual Average (KPCZ) Record (KPCZ)
Temperature  
Mean Temperature 64 °F -  
Max Temperature 77 °F 80 °F 94 °F (1987)
Min Temperature 50 °F 55 °F 38 °F (1958)
Degree Days  
Heating Degree Days 2    
Growing Degree Days 14 (Base 50)    
Moisture  
Dew Point 51 °F    
Average Humidity 64    
Maximum Humidity 96    
Minimum Humidity 40    
Precipitation  
Precipitation 0.00 in - - ()
Sea Level Pressure  
Sea Level Pressure 30.08 in    
Wind  
Wind Speed 5 mph (ESE)    
Max Wind Speed 12 mph    
Max Gust Speed -    
Visibility 10 miles    
Events      
Averages and records for this station are not official NWS values.
T = Trace of Precipitation, MM = Missing Value Source: NWS Daily Summary

Daily Weather History Graph

Daily Weather History Graph

Search for Another Location

Airport or City:

Trip Planner

Search our weather history database for the weather conditions in past years. The results will help you decide how hot, cold, wet, or windy it might be!

Date:

Astronomy

Jun. 14, 2013 Rise Set
Actual Time 5:13 AM CDT 8:41 PM CDT
Civil Twilight 4:37 AM CDT 9:18 PM CDT
Nautical Twilight 3:49 AM CDT 10:05 PM CDT
Astronomical Twilight 2:49 AM CDT 11:06 PM CDT
Moon 10:59 AM CDT (6/14) No Moon Set
Length of Visible Light 16h 40m
Length of Day
15h 28m
Waxing Crescent, 30% of the Moon is Illuminated
Jun 14
Waxing Crescent
Jun 16
First Quarter
Jun 23
Full
Jun 29
Last Quarter
Jul 8
New

Hourly Weather History & Observations

Time (CDT) Temp. Dew Point Humidity Pressure Visibility Wind Dir Wind Speed Gust Speed Precip Events Conditions
12:56 AM 57.9 °F 50.9 °F 77% 30.09 in 10.0 mi NE 5.8 mph - N/A   Clear
1:56 AM 55.9 °F 50.0 °F 80% 30.10 in 10.0 mi NNE 4.6 mph - N/A   Clear
2:56 AM 52.9 °F 50.9 °F 93% 30.11 in 10.0 mi NNE 3.5 mph - N/A   Clear
3:56 AM 50.9 °F 48.9 °F 93% 30.12 in 10.0 mi Calm Calm - N/A   Clear
4:56 AM 50.0 °F 48.9 °F 96% 30.10 in 10.0 mi NE 4.6 mph - N/A   Clear
5:56 AM 50.0 °F 48.9 °F 96% 30.12 in 10.0 mi NE 3.5 mph - N/A   Clear
6:56 AM 55.9 °F 48.9 °F 77% 30.12 in 10.0 mi NE 11.5 mph - N/A   Clear
7:56 AM 59.0 °F 46.9 °F 64% 30.14 in 10.0 mi NE 5.8 mph - N/A   Clear
8:56 AM 61.9 °F 47.8 °F 60% 30.16 in 10.0 mi Calm Calm - N/A   Clear
9:56 AM 65.8 °F 48.9 °F 54% 30.14 in 10.0 mi East 6.9 mph - N/A   Clear
10:56 AM 68.9 °F 47.8 °F 47% 30.14 in 10.0 mi East 4.6 mph - N/A   Clear
11:56 AM 70.9 °F 48.9 °F 46% 30.12 in 10.0 mi South 6.9 mph - N/A   Clear
12:56 PM 72.0 °F 47.8 °F 42% 30.10 in 10.0 mi East 11.5 mph - N/A   Clear
1:56 PM 74.8 °F 50.9 °F 43% 30.09 in 10.0 mi SSE 9.2 mph - N/A   Clear
2:56 PM 74.8 °F 50.0 °F 42% 30.09 in 10.0 mi SE 6.9 mph - N/A   Clear
3:56 PM 75.9 °F 50.0 °F 40% 30.05 in 10.0 mi SSW 6.9 mph - N/A   Clear
4:56 PM 77.0 °F 52.0 °F 42% 30.03 in 10.0 mi SSE 9.2 mph - N/A   Clear
5:56 PM 75.9 °F 54.0 °F 46% 30.01 in 10.0 mi SE 6.9 mph - N/A   Clear
6:56 PM 73.9 °F 54.0 °F 50% 30.01 in 10.0 mi SSE 5.8 mph - N/A   Clear
7:56 PM 72.0 °F 56.8 °F 59% 30.01 in 10.0 mi SE 3.5 mph - N/A   Clear
8:56 PM 66.9 °F 57.9 °F 73% 30.01 in 10.0 mi East 3.5 mph - N/A   Clear
9:56 PM 63.9 °F 57.9 °F 81% 30.01 in 10.0 mi ESE 6.9 mph - N/A   Clear
10:56 PM 63.9 °F 52.0 °F 65% 30.00 in 10.0 mi ESE 6.9 mph - N/A   Mostly Cloudy
11:56 PM 63.0 °F 50.9 °F 65% 30.01 in 10.0 mi Calm Calm - N/A   Mostly Cloudy